Regional Weather Roundup
Issued by NWS

Home | Current Version | Previous Version | Graphics & Text | Print | Product List | Glossary On
Versions: 1 2 3 4 5 6 7 8 9 10 11 12 13 14 15 16 17 18 19 20 21 22 23 24 25 26 27 28 29 30 31 32 33 34 35 36 37 38 39 40 41 42 43 44 45 46 47 48 49 50
000
ASUS43 KIND 290609
RWRIN

WEATHER ROUNDUP FOR INDIANA
NATIONAL WEATHER SERVICE INDIANAPOLIS IN
200 AM EDT THU JUN 29 2017

NOTE: "FAIR" INDICATES FEW OR NO CLOUDS BELOW 12,000 FEET WITH NO
SIGNIFICANT WEATHER AND/OR OBSTRUCTIONS TO VISIBILITY.

* - STATION DOES NOT REPORT WEATHER SUCH AS PRECIPITATION OR FOG.

+ - STATION NOT QUALITY CONTROLLED BY THE NATIONAL WEATHER SERVICE.
    USE DATA WITH CAUTION...ESPECIALLY DEWPOINT AND RELATIVE
    HUMIDITY OBSERVATIONS.

INZ001>003-010>013-019-020-290700-
NORTHWEST INDIANA

CITY           SKY/WX    TMP DP  RH WIND       PRES   REMARKS
GARY /AIRPORT/ CLOUDY    76  62  60 W5        29.85R
KNOX *+        CLOUDY    72  50  46 S18G29    29.84F
LA PORTE +     CLOUDY    72  60  66 SW13G18   29.86S
6HR MIN TEMP:  70; 6HR MAX TEMP:  77;

MICHIGAN CITY+ LGT RAIN  68  63  83 N3        29.88R
MONTICELLO +   CLOUDY    72  59  63 S13G18    29.90R
6HR MIN TEMP:  72; 6HR MAX TEMP:  79;

RENSSELAER +   CLOUDY    73  59  60 S20G25    29.86F
VALPARAISO     CLOUDY    74  63  68 S15G22    29.84F
6HR MIN TEMP:  73; 6HR MAX TEMP:  80; 6HR PCP:  0.01;


$$

LMZ046-743>745-290700-
SOUTHERN LAKE MICHIGAN

STATION/POSITION TIME  TEMP    WIND        PRES    WAVE
                       AIR SEA DIR/SP/G            HT
                 (UTC) (F)     (DEG/KT/KT) (MB)    (FT)
BURNS HARBOR     0540   75     230/ 11/ 16 1011.2R
MICHIGAN CITY    0540   70     360/ 14/ 17   N/A
5NW MICH CITY    0600   66 65   30/ 14/ 17   N/A     1

$$

INZ004-005-014>016-021>024-290700-
NORTH CENTRAL INDIANA

CITY           SKY/WX    TMP DP  RH WIND       PRES   REMARKS
GOSHEN         LGT RAIN  72  56  57 S15G23    29.89F
6HR MIN TEMP:  72; 6HR MAX TEMP:  77; 6HR PCP: TRACE;

LOGANSPORT +   PTCLDY    70  57  64 SW13G20   29.92S
PERU/GRISSOM   CLOUDY    72  58  61 S17G26    29.89F
6HR MIN TEMP:  71; 6HR MAX TEMP:  78;

ROCHESTER +    CLOUDY    73  57  56 S12G18    29.91S
SOUTH BEND     CLOUDY    70  61  73 S8        29.87F
6HR MIN TEMP:  69; 6HR MAX TEMP:  76; 6HR PCP:  0.02;

WARSAW +       CLOUDY    72  55  56 SW7       29.90F

$$

INZ006>009-017-018-025>027-290700-
NORTHEAST INDIANA

CITY           SKY/WX    TMP DP  RH WIND       PRES   REMARKS
ANGOLA *+      CLEAR     72  64  78 SW12      29.90F
AUBURN +       CLOUDY    70  52  52 SW9       29.93S
FORT WAYNE     MOCLDY    70  54  56 S12       29.93F
6HR MIN TEMP:  69; 6HR MAX TEMP:  77;

HUNTINGTON +   PTCLDY    70  54  56 S12G20    29.92F
6HR MIN TEMP:  69; 6HR MAX TEMP:  75;

KENDALLVILLE + MOCLDY    71  55  56 S15       29.91F

$$

INZ028-029-035-036-043>045-051>053-290700-
WEST CENTRAL INDIANA

CITY           SKY/WX    TMP DP  RH WIND       PRES   REMARKS
CRAWFORDSVL +  MOCLDY    69  59  71 S12G21    29.94F
6HR MIN TEMP:  68; 6HR MAX TEMP:  76;

GREENCASTLE +  MOCLDY    70  57  64 S6        29.97F
LAFAYETTE      MOCLDY    72  60  66 S9G16     29.90F
6HR MIN TEMP:  71; 6HR MAX TEMP:  78;

TERRE HAUTE    PTCLDY    72  60  66 S10       29.96S
6HR MIN TEMP:  72; 6HR MAX TEMP:  80;


$$

INZ030>032-037>040-046>048-054>057-064-065-290700-
CENTRAL INDIANA

CITY           SKY/WX    TMP DP  RH WIND       PRES   REMARKS
CP ATTERBURY + CLOUDY    66  55  68 S5        30.00F
FRANKFORT +    CLOUDY    72  60  67 S9        29.94F
6HR MIN TEMP:  71; 6HR MAX TEMP:  80;

GREENWOOD *+   MOCLDY    69  54  58 S8        29.99F
INDIANAPOLIS   CLOUDY    70  56  61 S13       29.96F
6HR MIN TEMP:  69; 6HR MAX TEMP:  77;

-EAGLE CREEK   CLOUDY    70  56  61 S6        29.97S
6HR MIN TEMP:  70; 6HR MAX TEMP:  79;

KOKOMO +       CLOUDY    72  57  59 S15G23    29.94F
6HR MIN TEMP:  71; 6HR MAX TEMP:  78;

MARION +       CLOUDY    70  54  56 S15       29.95F
MT COMFORT *+  MOCLDY    68  55  64 S10       29.99S
SHELBYVILLE    CLOUDY    70  54  56 S13       29.98F
6HR MIN TEMP:  70; 6HR MAX TEMP:  79;

ZIONSVILLE +   MOCLDY    69  56  64 S13       29.97S
6HR MIN TEMP:  69; 6HR MAX TEMP:  77;


$$

INZ033-034-041-042-049-050-058-059-290700-
EAST CENTRAL INDIANA

CITY           SKY/WX    TMP DP  RH WIND       PRES   REMARKS
MUNCIE         MOCLDY    72  54  53 S10G20    29.96S
6HR MIN TEMP:  72; 6HR MAX TEMP:  78;

RICHMOND +     PTCLDY    61  55  82 S9        30.02F

$$

INZ060-061-067>069-081>083-085>088-290700-
SOUTHWEST INDIANA

CITY           SKY/WX    TMP DP  RH WIND       PRES   REMARKS
EVANSVILLE     PTCLDY    74  62  66 S7        30.00R
6HR MIN TEMP:  74; 6HR MAX TEMP:  81;

HUNTINGBURG *+ CLOUDY    71  61  70 S9        30.01R
6HR MIN TEMP:  70; 6HR MAX TEMP:  79;

WASHINGTON +   CLOUDY    67  59  75 S6        29.98S
6HR MIN TEMP:  66; 6HR MAX TEMP:  80;


$$

INZ062-063-066-070>080-084-089>092-290700-
SOUTH CENTRAL AND SOUTHEAST INDIANA

CITY           SKY/WX    TMP DP  RH WIND       PRES   REMARKS
BEDFORD +      CLOUDY    68  55  64 S5        30.00S
BLOOMINGTON    CLOUDY    70  57  63 S7        29.99S
6HR MIN TEMP:  68; 6HR MAX TEMP:  78;

MADISON *+     CLOUDY    68  54  60 S3        30.05S
NORTH VERNON + CLOUDY    66  55  68 S8        30.02F
SEYMOUR +      CLOUDY    66  57  72 S3        30.01S

$$




USA.gov is the U.S. government's official web portal to all federal, state and local government web resources and services.